This is the latest recevied weather packets stored in our database for station/object SV2RIM-2. If no packets are shown the sender has not sent any weather packets the latest 10 day(s).
| Time | Temp. | Humidity | Pressure | Rain* | Wind** | Luminosity | Snow |
|---|---|---|---|---|---|---|---|
| 1787763019 | 33.89° C | 30% | 1011.6 hPa | - | - | - | - |
| 1787762419 | 34.44° C | 30% | 1011.6 hPa | - | - | - | - |
| 1787761820 | 35° C | 29% | 1011.5 hPa | - | - | - | - |
| 1787761220 | 35.56° C | 29% | 1011.4 hPa | - | - | - | - |
| 1787760619 | 36.67° C | 29% | 1011.4 hPa | - | - | - | - |
| 1787760019 | 37.22° C | 29% | 1011.4 hPa | - | - | - | - |
| 1787759420 | 37.22° C | 30% | 1011.3 hPa | - | - | - | - |
| 1787758819 | 35.56° C | 31% | 1011.3 hPa | - | - | - | - |
| 1787758221 | 34.44° C | 31% | 1011.3 hPa | - | - | - | - |
| 1787757619 | 35° C | 31% | 1011.3 hPa | - | - | - | - |
| 1787757019 | 35° C | 31% | 1011.3 hPa | - | - | - | - |
| 1787756419 | 35.56° C | 31% | 1011.3 hPa | - | - | - | - |
| 1787755819 | 36.67° C | 31% | 1011.2 hPa | - | - | - | - |
| 1787755219 | 38.33° C | 30% | 1011.3 hPa | - | - | - | - |
| 1787754620 | 38.89° C | 30% | 1011.4 hPa | - | - | - | - |
| 1787754020 | 38.33° C | 31% | 1011.4 hPa | - | - | - | - |
| 1787753419 | 37.78° C | 33% | 1011.4 hPa | - | - | - | - |
| 1787752819 | 37.78° C | 33% | 1011.4 hPa | - | - | - | - |
| 1787752219 | 38.89° C | 32% | 1011.6 hPa | - | - | - | - |
| 1787751619 | 38.89° C | 32% | 1011.6 hPa | - | - | - | - |
| 1787751020 | 38.33° C | 33% | 1011.6 hPa | - | - | - | - |
| 1787750419 | 37.78° C | 34% | 1011.6 hPa | - | - | - | - |
| 1787749820 | 37.22° C | 35% | 1011.7 hPa | - | - | - | - |
| 1787749220 | 37.22° C | 35% | 1011.7 hPa | - | - | - | - |
| 1787748619 | 36.67° C | 36% | 1011.8 hPa | - | - | - | - |
* Rain since midnight (hover to see other rain measurements)
** Current wind speed in m/s (hover to see current wind gust speed)